[[{"header":{"parameterUnit":"m.s-1","parameterCategory":1,"la1":30.2992,"la2":30.254,"lo1":-89.0895,"lo2":-89.0443,"dy":0.0025,"dx":0.0025,"nx":19,"ny":19,"refTime":"2026-03-09T09:00:00:Z","depth":0,"parameterNumber":2,"parameterNumberName":"U-component_of_WINDS"},"data":[0,0,0,-2.8162,-2.8165,-2.8314,-2.8315,-2.8496,-2.8497,0,0,0,0,0,0,0,0,0,0,0,-2.811,-2.8111,-2.8162,-2.8165,-2.8314,-2.8315,-2.8495,-2.8497,0,0,0,0,0,0,0,0,0,0,0,-2.811,-2.8111,-2.8112,-2.8166,-2.8314,-2.8315,-2.8495,-2.8386,0,0,0,0,0,0,0,0,0,0,-2.8243,-2.8188,-2.8111,-2.8112,-2.8167,-2.8314,-2.8315,-2.8381,-2.8393,-2.8423,0,-2.8447,0,-2.8475,-2.8508,-2.8509,0,0,0,-2.8171,-2.8178,-2.8225,-2.8113,-2.8168,-2.8314,-2.8249,-2.8388,-2.8401,-2.8439,-2.845,-2.8457,-2.8478,-2.851,-2.851,-2.8662,-2.8662,0,0,-2.8163,-2.8134,-2.8216,-2.8233,-2.8208,-2.8244,-2.8253,-2.8396,-2.8407,-2.845,-2.8461,-2.8481,-2.8511,-2.8512,-2.8662,-2.8662,0,0,0,-2.8135,-2.8127,-2.8171,-2.8226,-2.8253,-2.8248,-2.8259,-2.84,-2.8417,-2.8463,-2.8483,-2.8512,-2.8514,-2.8661,-2.8662,-2.8653,0,0,0,-2.8131,-2.8111,-2.8167,-2.8151,-2.825,-2.8328,-2.8259,-2.8407,-2.8424,-2.8482,-2.8512,-2.8515,-2.8661,-2.8661,-2.8652,-2.8653,0,0,0,-2.8103,-2.8108,-2.8127,-2.8149,-2.8212,-2.8327,-2.8352,-2.8411,-2.8436,-2.8509,-2.8516,-2.866,-2.8661,-2.8652,-2.8652,-2.8684,0,0,0,-2.8066,-2.8118,-2.8127,-2.8193,-2.821,-2.832,-2.8351,-2.8435,-2.8497,-2.8513,-2.8661,-2.8662,-2.8651,-2.8652,-2.8683,-2.8703,-2.8709,0,0,-2.8116,-2.8123,-2.8165,-2.8177,-2.8277,-2.83,-2.84,-2.8485,-2.852,-2.8613,-2.8617,-2.8652,-2.8652,-2.8683,-2.8757,-2.8761,0,0,0,-2.8171,-2.82,-2.8233,-2.829,-2.8356,-2.8413,-2.8486,-2.8518,-2.8598,-2.8561,-2.8674,-2.8675,-2.8694,-2.8706,-2.8709,-2.8728,-2.8666,-2.8666,-2.8666,-2.8198,-2.8239,-2.831,-2.8369,-2.8424,-2.8499,-2.8548,-2.8604,-2.863,-2.8656,-2.8683,-2.8723,-2.8735,-2.8738,-2.8756,-2.8699,-2.8699,-2.8699,-2.8699,-2.8273,-2.8321,-2.8354,-2.8435,-2.8478,-2.8547,-2.8623,-2.8639,-2.871,-2.8706,-2.8725,-2.8715,-2.8742,-2.876,-2.8699,-2.8699,-2.8699,-2.8699,-2.8699,-2.8294,-2.8324,-2.8361,-2.8448,-2.8511,-2.857,-2.8636,-2.8675,-2.8711,-2.8731,-2.8763,-2.8763,-2.8767,-2.8744,-2.8744,-2.8744,-2.8744,-2.8744,-2.8744,-2.83,-2.8343,-2.8393,-2.8468,-2.8509,-2.8569,-2.8646,-2.8689,-2.8746,-2.8769,-2.8769,-2.8792,-2.8737,-2.8721,-2.8747,-2.8746,-2.8746,-2.8746,-2.8745,-2.8359,-2.8352,-2.8429,-2.8471,-2.8562,-2.8621,-2.867,-2.8754,-2.8795,-2.8826,-2.8846,-2.8799,-2.881,-2.8807,-2.8794,-2.8838,-2.8838,-2.8838,-2.8838,-2.8375,-2.8384,-2.8472,-2.8536,-2.8604,-2.8655,-2.8743,-2.8804,-2.8866,-2.8894,-2.8894,-2.8881,-2.8877,-2.889,-2.8886,-2.8874,-2.8936,-2.8937,-2.8937,-2.8413,-2.8431,-2.8496,-2.8556,-2.863,-2.8693,-2.8777,-2.885,-2.892,-2.8941,-2.8917,-2.8913,-2.8892,-2.8884,-2.8902,-2.8894,-2.8874,0,0]},{"header":{"parameterUnit":"m.s-1","parameterCategory":1,"la1":30.2992,"la2":30.254,"lo1":-89.0895,"lo2":-89.0443,"dy":0.0025,"dx":0.0025,"nx":19,"ny":19,"refTime":"2026-03-09T09:00:00:Z","depth":0,"parameterNumber":3,"parameterNumberName":"V-component_of_WINDS"},"data":[0,0,0,3.3786,3.3789,3.3957,3.3957,3.4161,3.4163,0,0,0,0,0,0,0,0,0,0,0,3.3725,3.3726,3.3786,3.3789,3.3957,3.3958,3.4161,3.4163,0,0,0,0,0,0,0,0,0,0,0,3.3725,3.3726,3.3727,3.379,3.3956,3.3958,3.416,3.4039,0,0,0,0,0,0,0,0,0,0,3.3879,3.381,3.3725,3.3727,3.3791,3.3956,3.3958,3.4033,3.4046,3.4079,0,3.4101,0,3.4134,3.4175,3.4176,0,0,0,3.3799,3.3799,3.3854,3.3727,3.3792,3.3956,3.3884,3.4041,3.4056,3.4096,3.4104,3.4112,3.4138,3.4176,3.4177,3.4324,3.4324,0,0,3.379,3.375,3.3843,3.3863,3.3831,3.3878,3.3889,3.405,3.4057,3.4104,3.4117,3.4141,3.4177,3.4179,3.4323,3.4324,0,0,0,3.3757,3.3743,3.3795,3.3854,3.3885,3.3883,3.3895,3.405,3.407,3.4119,3.4143,3.4178,3.4181,3.4323,3.4324,3.4295,0,0,0,3.3752,3.3724,3.379,3.3767,3.3881,3.3968,3.3891,3.4059,3.4078,3.4142,3.4179,3.4183,3.4323,3.4323,3.4295,3.4289,0,0,0,3.3718,3.372,3.374,3.3765,3.3835,3.3967,3.3996,3.4064,3.4093,3.4176,3.4183,3.4323,3.4323,3.4296,3.4289,3.4316,0,0,0,3.3672,3.3714,3.3739,3.3796,3.3833,3.3946,3.3996,3.4083,3.4151,3.4179,3.4323,3.4324,3.4296,3.429,3.4316,3.4331,3.4333,0,0,3.3703,3.3716,3.3753,3.378,3.3878,3.3924,3.4021,3.4122,3.4169,3.4271,3.4275,3.4295,3.4289,3.4316,3.4359,3.4361,0,0,0,3.3749,3.3775,3.381,3.3871,3.3947,3.4014,3.4105,3.4143,3.4231,3.4211,3.4314,3.4311,3.4329,3.4338,3.4339,3.4358,3.4326,3.4326,3.4326,3.3736,3.3791,3.3856,3.3932,3.3991,3.4084,3.4139,3.4207,3.4247,3.4271,3.4301,3.432,3.4329,3.433,3.4349,3.4313,3.4313,3.4313,3.4313,3.3787,3.3833,3.3884,3.3965,3.4025,3.4096,3.419,3.4216,3.4293,3.4301,3.432,3.4323,3.433,3.4349,3.4312,3.4312,3.4312,3.4312,3.4312,3.3785,3.3816,3.386,3.3955,3.4023,3.4101,3.4172,3.4225,3.4276,3.4294,3.4333,3.4333,3.4341,3.4308,3.4308,3.4309,3.4309,3.4309,3.4309,3.3764,3.3815,3.3866,3.3952,3.3999,3.4068,3.4164,3.4214,3.4283,3.4317,3.4317,3.4356,3.4319,3.4309,3.431,3.431,3.431,3.4309,3.4309,3.3796,3.3797,3.3876,3.3923,3.403,3.4095,3.4162,3.4259,3.4308,3.4342,3.4378,3.4342,3.4361,3.436,3.4352,3.4364,3.4364,3.4364,3.4364,3.3794,3.3808,3.3901,3.3973,3.405,3.4118,3.4212,3.4289,3.4369,3.4404,3.4411,3.4405,3.4402,3.4423,3.4421,3.4414,3.4442,3.4442,3.4442,3.3817,3.3841,3.3906,3.3981,3.4069,3.4145,3.4235,3.432,3.4413,3.4446,3.4433,3.443,3.4421,3.4415,3.4447,3.4443,3.4432,0,0]}]]